Location: Unspecified
(0.0000°N, 0.0000°E)
Time: 12:10:40
(UTC+00:00)

Vanguard 1 - Pass Details

Date: 23 November 2019
Orbit: 652 x 3832 km, 34.3° (Epoch: 10 December)

Event Time Altitude Azimuth Distance (km) Brightness Sun altitude
Rises 18:35:11 0° 285° (WNW) 3,208 13.7 -11.4°
Reaches altitude 10° 18:37:23 10° 275° (W) 2,458 13.2 -11.9°
Maximum altitude 18:42:39 37° 208° (SSW) 1,664 11.7 -13.2°
Drops below altitude 10° 18:51:15 10° 143° (SE) 4,022 13.0 -15.2°
Sets 18:55:58 0° 136° (SE) 5,578 13.7 -16.3°
